Location: Bijele Vode
(45.2833°N, 16.2000°E)
Time: 20:07:44
(UTC+00:00)

Meteor 1-12 Rocket - Pass Details

Date: 18 September 2020
Orbit: 854 x 927 km, 81.2° (Epoch: 27 October)

Event Time Altitude Azimuth Distance (km) Brightness Sun altitude
Rises 18:06:08 0° 176° (S) 3,540 7.2 -12.3°
Reaches altitude 10° 18:08:38 10° 172° (S) 2,594 6.5 -12.8°
Maximum altitude 18:14:25 58° 95° (E) 1,050 4.4 -13.7°
Drops below altitude 10° 18:20:08 10° 18° (NNE) 2,565 6.7 -14.7°
Sets 18:22:36 0° 15° (NNE) 3,498 7.5 -15.1°
